Wind_Speed
3 3 5 8 10 12 14 12 12 17 21 22 24 26 27 28 32 35 35 37 40 42 42 43 44 45 45 47 49 50 50 52 53 53 54 55 56 55 54 55 54 53 51 50 49 47 46 47 47
4 6 8 9 11 16 15 12 15 20 24 26 26 28 29 30 33 37 40 40 40 41 42 44 44 45 46 46 47 49 50 51 51 53 54 55 57 59 61 61 61 61 61 59 56 54 53 51 50
4 6 8 11 11 13 18 18 21 23 26 28 31 31 32 33 36 38 40 42 42 41 41 42 42 43 45 47 49 50 52 53 55 56 57 57 57 58 60 63 65 67 68 67 65 63 61 59 56
5 7 10 12 15 16 18 19 21 23 27 30 32 33 34 37 39 39 40 40 39 40 40 42 44 46 49 52 54 57 59 61 62 62 64 64 63 63 62 63 64 66 68 70 72 71 69 67 64
8 10 15 16 14 16 22 22 24 25 28 30 32 33 32 35 35 36 36 37 37 40 43 47 51 55 57 60 63 66 68 69 72 73 73 72 73 73 72 70 69 68 69 70 72 73 75 74 72
10 12 15 18 18 20 22 25 27 28 31 32 32 31 31 33 32 34 36 39 44 47 50 53 56 60 64 67 69 73 76 78 80 81 82 82 81 81 81 80 80 78 75 73 73 74 74 77 78
12 14 17 18 20 20 24 26 26 27 31 32 30 29 28 29 31 36 41 46 50 54 57 61 64 68 72 74 77 78 77 72 70 68 67 65 68 73 78 82 82 83 84 83 79 78 77 77 78
15 17 22 20 19 18 23 26 26 26 27 28 28 27 29 33 37 43 48 52 56 61 65 68 71 74 76 75 67 56 48 44 43 41 39 40 38 38 40 45 53 66 75 80 89 86 83 81 80
17 19 21 23 22 22 22 24 24 25 25 24 26 30 34 40 44 49 53 57 62 66 69 72 74 70 58 44 41 44 45 46 46 46 45 43 41 40 40 40 39 39 46 63 69 80 90 87 86
18 20 22 24 25 25 23 24 23 23 22 24 28 33 38 43 48 53 57 59 66 69 72 64 47 35 36 39 43 46 48 48 49 49 48 47 48 48 46 45 43 42 40 40 49 68 75 81 90
20 22 23 23 24 24 24 23 21 21 24 28 32 37 42 48 52 56 60 65 67 65 48 31 30 34 37 37 36 34 34 35 37 39 42 44 46 48 49 49 48 47 45 42 42 44 65 75 78
20 22 24 25 25 24 21 22 24 25 27 30 35 41 46 50 54 57 63 62 54 33 25 28 30 27 26 31 33 34 35 35 36 37 39 40 41 42 43 45 48 49 50 49 46 44 45 55 74
20 22 23 24 24 21 21 24 26 28 30 34 39 44 49 53 55 59 61 50 26 26 28 22 23 29 29 31 33 33 35 37 39 40 41 43 44 45 46 46 47 47 48 49 50 50 48 49 53
20 22 23 24 23 21 22 24 28 30 32 36 41 47 53 55 54 59 53 29 26 27 20 24 26 29 31 32 33 35 38 40 40 42 44 47 49 50 51 51 52 53 51 50 50 51 53 53 52
20 22 24 24 23 21 22 27 30 30 34 40 46 50 55 54 57 56 34 26 28 18 21 25 28 31 33 34 37 39 38 40 43 45 48 48 49 53 57 60 61 60 59 55 53 53 52 55 57
22 20 22 24 23 24 25 27 30 32 38 43 48 53 55 56 58 44 25 29 22 20 24 28 30 33 35 38 39 38 41 44 45 44 46 50 55 61 66 69 72 70 67 63 60 57 55 53 54
22 23 22 23 24 25 27 27 31 34 40 45 50 56 56 58 58 32 25 29 18 21 26 30 33 36 37 38 38 41 45 46 43 44 50 54 58 64 68 73 67 62 62 62 61 62 59 55 53
26 27 26 25 25 25 28 27 32 36 42 48 54 56 57 57 47 22 24 27 17 22 28 32 35 36 38 37 41 45 46 45 44 48 54 58 61 67 69 56 48 48 49 47 49 54 61 58 54
28 27 26 24 25 28 29 27 32 37 45 50 55 55 58 57 29 20 25 27 19 23 29 32 35 37 36 39 42 45 47 44 47 52 59 61 62 64 61 44 47 47 42 42 43 43 50 58 55
27 27 26 25 25 29 30 30 33 40 46 52 54 56 61 50 21 23 26 24 18 24 29 33 35 35 37 41 45 48 51 49 50 55 60 63 61 59 50 44 43 37 31 30 31 34 37 45 52
25 25 25 26 25 27 30 30 35 40 48 54 56 59 62 31 20 24 25 18 20 26 30 33 34 34 38 42 46 50 52 52 51 54 59 64 59 56 44 44 37 29 24 22 21 22 28 34 42
25 27 26 26 26 27 31 33 35 42 49 55 57 61 55 23 22 26 20 18 23 27 31 32 32 35 39 42 46 50 51 51 51 56 61 63 54 51 41 42 37 26 19 13 14 18 21 24 31
27 28 28 25 24 28 32 33 37 44 52 55 59 63 46 21 24 25 18 20 25 29 31 32 32 35 39 43 47 49 51 51 53 57 60 59 50 47 38 41 34 24 15 11 8 10 10 13 18
28 29 28 26 26 29 32 35 40 47 52 54 59 60 36 22 25 23 18 22 26 30 31 31 32 34 39 43 46 48 50 50 54 57 56 53 48 38 33 32 34 22 20 19 13 6 5 5 10
29 30 29 27 28 30 33 36 41 46 51 54 57 58 28 24 25 20 18 24 28 30 31 30 33 34 39 42 45 47 47 51 54 57 57 53 44 29 27 28 29 22 20 21 22 16 11 2 7
29 32 33 31 30 30 32 35 39 46 52 53 54 57 24 26 25 16 20 26 28 30 29 30 33 33 38 41 44 46 45 49 55 56 56 58 48 27 27 27 27 23 18 20 19 20 20 16 9
30 32 33 30 29 31 31 33 39 45 50 51 52 54 25 28 25 17 21 26 27 29 27 30 34 33 37 40 43 45 44 47 52 55 54 55 52 29 27 25 26 23 21 19 18 20 22 21 19
29 33 33 32 31 33 31 34 38 44 49 50 51 53 26 30 25 19 23 26 27 27 25 29 33 32 36 40 42 44 44 43 49 53 55 52 52 44 26 23 21 20 20 20 18 16 15 13 11
28 31 33 32 30 32 33 32 36 42 47 49 51 51 32 31 24 20 24 27 27 26 24 28 33 33 35 38 40 43 43 42 45 51 53 55 50 46 48 26 18 16 15 15 16 15 14 14 12
27 29 32 33 30 30 31 30 34 40 44 49 53 50 41 30 26 21 25 27 28 26 23 27 32 33 34 37 41 43 43 44 44 46 50 54 55 47 44 46 36 21 16 15 14 14 14 14 13
Wind_Direction
202 289 308 312 302 298 304 313 292 293 302 312 310 310 309 307 306 304 301 297 297 297 297 296 294 292 290 289 287 285 283 282 279 276 272 268 264 262 260 261 261 259 257 256 254 252 248 246 243
336 322 315 302 301 309 313 311 300 303 312 311 311 309 308 308 305 300 299 301 300 300 299 297 296 296 296 294 291 288 285 283 281 278 277 273 269 264 260 256 256 258 258 257 256 253 250 246 245
327 315 310 303 306 304 304 309 310 319 317 314 311 311 310 307 302 302 304 303 303 303 301 300 300 298 295 292 289 287 284 282 279 277 274 272 270 268 266 261 256 253 254 255 254 255 253 248 245
297 308 305 297 328 312 310 316 319 324 316 311 309 311 312 308 306 307 304 304 306 305 304 302 300 296 293 290 289 288 285 284 281 279 277 274 270 266 262 261 260 257 252 252 252 251 251 253 248
315 314 306 339 339 323 320 323 325 321 312 311 311 311 310 305 310 307 307 305 303 303 303 301 299 297 296 293 291 289 288 287 285 282 279 277 275 272 268 263 258 256 254 252 248 248 250 248 249
326 330 328 342 338 336 324 323 324 319 313 313 313 317 315 312 312 309 306 306 306 305 302 301 298 297 296 295 295 295 295 294 292 289 285 280 277 273 269 267 265 260 254 251 250 248 245 246 246
350 340 335 340 342 333 320 323 320 317 314 316 319 318 317 315 312 310 308 308 307 306 305 303 302 302 301 299 298 297 296 296 296 295 293 291 288 284 277 272 268 261 258 255 250 247 245 245 244
349 341 335 339 338 327 322 320 323 319 318 319 321 322 320 317 316 315 314 312 309 308 308 305 302 300 299 299 301 300 297 296 296 296 298 297 296 293 288 282 274 266 260 255 249 248 244 243 243
350 343 339 336 336 334 330 325 326 325 323 323 323 324 321 321 318 315 315 315 314 311 308 305 302 303 305 303 299 300 300 299 297 296 297 297 295 293 294 293 289 281 266 251 247 247 244 241 240
355 347 344 341 340 339 336 331 330 327 326 326 326 323 322 320 317 318 318 315 315 310 305 306 307 306 305 303 302 300 298 296 294 293 293 293 293 292 290 288 287 285 280 278 257 243 241 240 239
356 351 348 345 341 339 337 332 334 332 327 327 327 325 322 320 322 321 319 318 314 309 310 315 314 310 308 308 309 311 312 309 305 301 300 298 296 292 289 286 284 282 278 274 272 262 245 240 235
357 354 352 348 345 342 338 334 334 332 328 326 325 325 323 325 325 322 319 319 317 318 319 316 313 314 318 317 317 317 315 312 310 308 305 302 299 296 293 291 287 282 278 274 268 263 258 250 241
355 353 352 350 345 342 337 332 336 334 330 329 328 324 326 330 326 322 326 319 321 325 323 323 325 322 321 318 318 317 315 313 311 307 305 301 299 295 293 290 287 283 280 276 270 263 257 251 247
354 350 352 349 344 340 337 334 336 333 331 329 325 325 330 332 327 330 324 320 325 326 327 327 325 320 321 321 321 320 318 317 315 313 311 308 307 306 303 296 291 284 278 274 270 264 257 253 246
352 350 350 347 341 342 339 334 336 334 332 328 326 329 334 334 332 332 320 321 326 322 328 326 326 326 326 325 324 322 322 320 318 314 314 314 311 309 307 301 297 289 279 273 269 264 259 252 248
351 351 347 342 342 341 340 337 335 336 330 329 331 335 336 333 335 328 321 326 321 327 331 330 329 330 329 328 325 325 322 319 318 319 318 315 312 310 309 305 301 288 280 272 268 262 257 253 247
344 342 346 344 344 341 342 341 336 334 332 333 337 339 337 337 334 321 325 329 317 327 331 332 333 332 330 328 327 325 324 323 321 320 320 317 313 311 308 307 297 286 279 274 266 258 253 251 249
345 345 350 347 345 343 344 342 333 333 333 337 341 338 337 338 328 317 326 332 318 326 331 334 335 332 332 330 329 328 326 324 323 323 324 321 320 320 316 309 301 294 285 276 268 254 248 246 246
346 348 349 343 343 345 344 342 334 334 338 341 343 337 335 336 331 325 331 333 325 328 333 335 335 335 333 332 331 331 328 323 326 325 326 328 324 324 324 312 305 300 288 280 269 261 249 244 242
348 348 345 345 344 344 343 345 337 339 341 344 342 337 340 339 342 331 334 337 332 333 334 337 338 338 335 336 337 336 334 331 328 328 332 330 329 329 328 322 312 305 296 284 274 263 254 242 237
351 348 344 346 347 345 342 347 343 343 345 346 343 341 344 348 343 340 342 343 337 336 340 340 340 339 340 342 343 342 340 335 332 333 333 335 335 337 335 339 333 320 308 293 275 268 255 246 233
355 353 347 348 348 346 344 349 347 347 348 350 346 345 348 352 348 345 348 342 338 340 343 343 343 343 346 349 347 347 345 344 341 338 336 339 340 343 342 347 344 333 325 304 286 284 268 249 230
359 354 351 353 348 348 350 347 351 352 352 352 347 350 349 353 349 349 345 342 340 345 347 346 346 348 351 353 351 351 350 348 346 343 342 342 346 346 347 357 355 357 355 349 351 320 285 252 226
5 358 355 350 352 351 350 353 356 355 354 354 350 353 352 354 350 349 340 342 344 348 349 349 348 351 355 355 353 354 355 353 352 350 350 349 350 351 353 357 5 26 44 19 15 3 352 243 217
8 1 356 359 359 356 355 358 356 356 357 357 350 353 355 353 351 349 343 344 350 351 351 350 351 354 357 359 357 358 359 357 357 358 359 2 359 4 2 13 17 33 24 20 27 43 57 125 194
9 5 359 357 360 359 358 357 357 0 2 359 353 353 356 354 352 353 346 349 354 353 354 354 354 357 0 2 2 1 2 1 3 5 5 8 11 19 25 24 22 29 23 35 45 51 59 63 95
6 5 1 359 1 360 1 359 3 4 2 0 358 356 355 351 355 353 349 353 356 357 357 359 359 2 6 6 7 5 4 6 10 12 11 13 19 19 31 35 36 35 43 47 56 65 66 66 67
5 4 2 358 0 1 7 2 4 6 4 5 2 359 355 352 356 351 351 356 358 0 2 3 3 6 10 10 11 10 8 8 14 16 16 17 21 22 14 26 40 47 49 55 57 53 44 45 51
5 5 4 360 358 1 6 5 5 9 8 12 10 3 358 357 354 351 352 357 0 2 5 7 8 10 12 14 16 15 12 12 15 19 20 22 23 25 29 21 14 20 19 16 12 11 8 4 3
3 4 6 360 358 1 5 7 8 11 11 18 18 12 6 359 357 353 355 358 2 5 6 11 12 13 14 16 20 19 18 16 17 20 23 24 27 26 29 33 35 19 1 356 353 353 352 347 340
Height
5878 5877 5877 5877 5879 5876 5875 5875 5874 5871 5869 5870 5869 5867 5865 5862 5858 5857 5852 5850 5848 5846 5845 5843 5841 5838 5836 5833 5831 5828 5826 5824 5823 5824 5824 5825 5825 5826 5828 5826 5826 5827 5827 5827 5829 5829 5831 5832 5833
5876 5876 5876 5876 5876 5873 5872 5872 5869 5867 5867 5865 5866 5863 5861 5857 5853 5849 5845 5844 5844 5841 5837 5834 5832 5828 5825 5822 5820 5817 5815 5813 5812 5809 5808 5809 5810 5810 5812 5814 5815 5814 5816 5817 5818 5819 5821 5823 5824
5875 5875 5874 5872 5873 5871 5869 5868 5866 5866 5864 5862 5859 5858 5855 5852 5847 5844 5841 5836 5834 5833 5830 5827 5824 5820 5817 5813 5810 5807 5805 5801 5799 5798 5797 5796 5796 5796 5796 5797 5799 5802 5802 5804 5806 5807 5809 5811 5814
5874 5873 5872 5871 5871 5869 5868 5866 5866 5864 5860 5857 5855 5853 5850 5844 5841 5838 5834 5831 5828 5824 5821 5818 5814 5811 5808 5803 5799 5795 5791 5788 5785 5784 5782 5781 5781 5781 5782 5781 5781 5783 5785 5788 5790 5792 5795 5797 5801
5873 5872 5869 5871 5870 5868 5863 5862 5861 5859 5856 5854 5852 5849 5846 5839 5836 5832 5828 5825 5822 5818 5815 5811 5805 5800 5796 5791 5787 5783 5778 5774 5770 5766 5764 5762 5761 5760 5761 5763 5764 5766 5767 5769 5772 5776 5778 5781 5783
5872 5871 5870 5869 5868 5865 5861 5859 5857 5855 5850 5849 5847 5844 5840 5834 5831 5826 5821 5818 5814 5810 5805 5801 5795 5789 5783 5777 5771 5766 5761 5755 5750 5746 5743 5741 5739 5739 5739 5741 5742 5745 5748 5751 5754 5757 5760 5763 5766
5872 5871 5868 5867 5866 5863 5859 5856 5855 5852 5846 5843 5842 5839 5836 5830 5826 5821 5815 5810 5804 5798 5792 5786 5780 5773 5766 5760 5754 5749 5743 5738 5733 5729 5724 5721 5717 5715 5714 5715 5718 5720 5724 5728 5732 5736 5741 5745 5749
5871 5869 5864 5865 5865 5862 5857 5853 5851 5848 5845 5840 5835 5833 5829 5824 5819 5813 5807 5800 5793 5787 5781 5774 5766 5759 5751 5745 5738 5732 5728 5723 5718 5715 5712 5708 5704 5700 5696 5694 5692 5693 5697 5701 5707 5713 5719 5724 5729
5869 5867 5865 5861 5860 5858 5855 5851 5848 5844 5840 5836 5832 5828 5823 5817 5811 5805 5798 5791 5783 5775 5766 5758 5749 5741 5735 5731 5727 5722 5717 5713 5708 5704 5700 5697 5693 5690 5685 5682 5679 5677 5675 5676 5679 5684 5693 5700 5709
5868 5865 5862 5859 5855 5853 5851 5847 5844 5841 5837 5834 5829 5824 5818 5812 5805 5797 5789 5782 5772 5762 5752 5743 5737 5732 5729 5725 5720 5715 5710 5705 5700 5695 5689 5686 5681 5677 5674 5670 5667 5665 5663 5661 5661 5663 5665 5672 5684
5867 5864 5861 5858 5854 5851 5847 5844 5841 5838 5834 5830 5825 5819 5812 5805 5797 5788 5779 5770 5760 5749 5739 5734 5731 5727 5722 5717 5712 5706 5701 5695 5690 5685 5680 5675 5670 5666 5662 5658 5655 5653 5651 5650 5648 5648 5649 5650 5656
5866 5863 5859 5856 5852 5848 5844 5841 5838 5835 5831 5826 5820 5813 5805 5799 5790 5780 5770 5758 5747 5740 5736 5732 5727 5722 5717 5712 5705 5700 5694 5689 5683 5678 5673 5667 5662 5657 5652 5646 5642 5639 5637 5636 5635 5635 5635 5635 5638
5865 5862 5858 5854 5850 5846 5842 5838 5835 5830 5825 5820 5814 5807 5800 5792 5781 5770 5759 5748 5740 5736 5731 5726 5722 5718 5712 5706 5699 5694 5689 5682 5676 5670 5664 5659 5652 5646 5641 5636 5630 5626 5622 5620 5619 5620 5621 5623 5624
5863 5859 5856 5852 5849 5845 5841 5836 5832 5827 5821 5816 5809 5801 5792 5783 5772 5760 5748 5740 5735 5730 5727 5722 5717 5713 5707 5700 5693 5687 5680 5673 5667 5660 5654 5647 5639 5632 5626 5621 5616 5611 5608 5605 5604 5603 5605 5607 5610
5861 5858 5853 5850 5846 5843 5839 5833 5829 5824 5817 5810 5802 5793 5784 5774 5761 5750 5740 5736 5731 5726 5722 5717 5712 5706 5700 5693 5686 5680 5673 5666 5659 5651 5643 5635 5626 5618 5611 5603 5596 5593 5589 5587 5587 5586 5587 5591 5594
5860 5858 5853 5847 5844 5840 5837 5831 5825 5820 5813 5805 5796 5786 5775 5764 5752 5741 5735 5731 5725 5722 5718 5712 5707 5700 5693 5686 5680 5673 5667 5659 5651 5642 5634 5625 5615 5604 5594 5584 5574 5568 5565 5565 5565 5567 5569 5572 5577
5858 5856 5852 5847 5842 5837 5833 5828 5821 5815 5808 5800 5790 5779 5767 5755 5744 5735 5731 5726 5722 5718 5714 5707 5701 5694 5687 5681 5674 5667 5658 5650 5642 5634 5624 5613 5602 5589 5576 5562 5550 5541 5537 5537 5539 5544 5550 5554 5558
5855 5850 5846 5842 5839 5834 5830 5825 5818 5812 5803 5794 5783 5770 5759 5749 5736 5730 5727 5722 5718 5714 5709 5702 5696 5690 5683 5676 5668 5659 5651 5641 5632 5623 5612 5600 5587 5573 5557 5540 5530 5523 5518 5515 5515 5519 5526 5535 5541
5850 5846 5842 5839 5835 5831 5827 5822 5815 5807 5799 5788 5777 5765 5754 5740 5729 5727 5722 5718 5714 5710 5705 5699 5692 5685 5678 5671 5663 5654 5645 5635 5624 5612 5599 5586 5571 5556 5540 5526 5516 5507 5500 5497 5498 5500 5505 5514 5522
5849 5844 5841 5837 5832 5828 5823 5819 5811 5803 5794 5785 5774 5760 5748 5733 5727 5724 5718 5713 5710 5706 5701 5695 5688 5681 5675 5667 5658 5648 5637 5626 5615 5602 5588 5574 5558 5543 5527 5515 5502 5493 5488 5484 5484 5486 5489 5494 5504
5847 5844 5839 5835 5830 5826 5821 5816 5808 5801 5791 5780 5766 5755 5741 5729 5725 5720 5715 5711 5708 5703 5697 5691 5684 5678 5671 5662 5653 5642 5631 5620 5609 5595 5580 5563 5547 5531 5517 5505 5492 5483 5479 5476 5476 5477 5478 5481 5489
5847 5842 5837 5832 5828 5823 5817 5813 5805 5797 5787 5773 5760 5749 5733 5727 5722 5718 5713 5709 5705 5700 5694 5688 5681 5675 5667 5658 5648 5638 5627 5615 5602 5588 5572 5554 5538 5524 5511 5499 5487 5479 5474 5473 5473 5472 5472 5474 5480
5846 5840 5836 5831 5827 5821 5814 5809 5802 5792 5781 5769 5756 5740 5730 5725 5722 5716 5712 5708 5703 5698 5691 5685 5679 5672 5664 5654 5645 5635 5623 5610 5597 5582 5565 5548 5533 5519 5508 5498 5487 5478 5474 5473 5472 5472 5470 5471 5476
5845 5840 5834 5830 5824 5819 5813 5806 5798 5788 5779 5766 5750 5740 5730 5724 5720 5715 5711 5706 5701 5695 5688 5682 5677 5670 5661 5652 5641 5631 5620 5608 5595 5580 5562 5545 5530 5517 5508 5499 5490 5481 5478 5476 5473 5471 5470 5471 5475
5843 5838 5834 5829 5822 5816 5809 5803 5795 5787 5777 5763 5749 5740 5728 5724 5718 5713 5710 5705 5699 5693 5687 5681 5675 5668 5659 5650 5639 5628 5617 5605 5592 5577 5559 5543 5528 5516 5509 5501 5494 5488 5484 5480 5476 5473 5472 5473 5476
5842 5836 5829 5823 5819 5814 5808 5802 5796 5786 5775 5763 5754 5739 5728 5723 5717 5712 5709 5704 5698 5692 5686 5680 5673 5666 5658 5649 5638 5626 5615 5605 5591 5576 5559 5543 5526 5518 5510 5503 5498 5493 5489 5486 5483 5480 5478 5478 5479
5840 5835 5829 5824 5819 5813 5808 5802 5794 5785 5775 5764 5752 5737 5728 5723 5716 5712 5707 5703 5697 5691 5685 5680 5672 5665 5657 5648 5637 5626 5615 5605 5592 5578 5563 5548 5531 5522 5514 5507 5502 5498 5494 5491 5489 5487 5485 5485 5486
5839 5834 5828 5821 5816 5810 5806 5799 5791 5784 5774 5763 5750 5737 5728 5722 5716 5712 5708 5702 5696 5690 5685 5679 5672 5665 5657 5648 5638 5627 5616 5607 5594 5581 5567 5553 5539 5527 5519 5513 5508 5503 5500 5497 5495 5493 5492 5490 5490
5838 5833 5827 5822 5816 5810 5804 5799 5792 5784 5775 5763 5751 5740 5728 5723 5716 5712 5708 5702 5696 5690 5685 5679 5672 5664 5657 5649 5639 5629 5619 5608 5598 5586 5572 5558 5545 5535 5524 5516 5512 5508 5505 5502 5499 5497 5495 5493 5492
5837 5832 5827 5821 5816 5810 5804 5800 5792 5785 5775 5765 5753 5741 5729 5723 5716 5713 5709 5703 5697 5690 5685 5680 5673 5666 5658 5651 5640 5631 5621 5610 5600 5589 5577 5565 5552 5540 5531 5523 5515 5510 5506 5502 5499 5497 5494 5492 5490